User: anonymous   Login
Location: Albany
(35.0000°S, 118.0000°E)
Time: 16:01:45
(UTC-05:00)
Language:

Cosmos 2227 Rocket - Orbit

View from above orbital plane
View from above orbital plane
View from above satellite
View from above satellite

Ground track
Ground track

The orbit data is extracted from the following two-line orbital elements,

1 22285U 92093B   17344.89388669 -.00000287 +00000-0 -12337-3 0  9996
2 22285 071.0205 201.5937 0006097 237.1212 122.9324 14.15017982287258
Epoch (UTC): 10 December 2017 21:27:11
Eccentricity: 0.0006097
inclination: 71.0205°
perigee height: 838 km
apogee height: 846 km
right ascension of ascending node: 201.5937°
argument of perigee: 237.1212°
revolutions per day: 14.15017982
mean anomaly at epoch: 122.9324°
orbit number at epoch: 28725

The dashed part of the orbit path shows where the satellite is in the earth's shadow,  

DLR